When you browse on this site, cookies collect data to enhance your experience and personalize the content and advertising you see.
Visit our Privacy Policy to learn more. By continuing to use the site, you agree to this use of cookies and data.
  • In Hungary
  • List of Countries
  • For 7 days
  • Water Temperature
  • Weather Map
  • News
  • Weather Widgets
  • user-avatar
    Login

    Hourly Weather Poboische

    Today, 14 October, Monday

    Time Temperature Precipitation Wind Pressure Humidity
    00:00 +8°C° 0 mm 2 mps 746 mmHg 97%
    01:00 +8°C° 0 mm 1 mps 747 mmHg 97%
    02:00 +8°C° 0 mm 1 mps 747 mmHg 97%
    03:00 +8°C° 0 mm 1 mps 747 mmHg 97%
    04:00 +7°C° 0 mm 2 mps 746 mmHg 97%
    05:00 +7°C° 0 mm 2 mps 746 mmHg 97%
    06:00 +8°C° 0 mm 2 mps 746 mmHg 95%
    07:00 +8°C° 0 mm 3 mps 746 mmHg 93%
    08:00 +9°C° 0 mm 3 mps 745 mmHg 91%
    09:00 +11°C° 0 mm 4 mps 745 mmHg 91%
    10:00 +12°C° 0 mm 5 mps 744 mmHg 90%
    11:00 +14°C° 0 mm 6 mps 743 mmHg 90%
    12:00 +15°C° 0 mm 6 mps 743 mmHg 84%
    13:00 +16°C° 0 mm 6 mps 742 mmHg 78%
    14:00 +17°C° 0 mm 6 mps 742 mmHg 72%
    15:00 +16°C° 0 mm 6 mps 741 mmHg 75%
    16:00 +16°C° 0 mm 5 mps 741 mmHg 77%
    17:00 +15°C° 0 mm 5 mps 741 mmHg 80%
    18:00 +15°C° 0 mm 5 mps 741 mmHg 82%
    19:00 +14°C° 0 mm 4 mps 742 mmHg 85%
    20:00 +14°C° 0 mm 4 mps 742 mmHg 87%
    21:00 +14°C° 0 mm 5 mps 742 mmHg 86%
    22:00 +13°C° 0 mm 5 mps 742 mmHg 85%
    23:00 +13°C° 0 mm 5 mps 742 mmHg 84%

    Tomorrow, 15 October, Tuesday

    Time Temperature Precipitation Wind Pressure Humidity
    00:00 +12°C° 0 mm 4 mps 743 mmHg 85%
    01:00 +11°C° 0 mm 4 mps 743 mmHg 86%
    02:00 +10°C° 0 mm 3 mps 744 mmHg 87%
    03:00 +10°C° 0 mm 3 mps 744 mmHg 88%
    04:00 +10°C° 0 mm 3 mps 745 mmHg 88%
    05:00 +10°C° 0 mm 2 mps 745 mmHg 89%
    06:00 +10°C° 0 mm 2 mps 746 mmHg 89%
    07:00 +10°C° 0 mm 2 mps 747 mmHg 89%
    08:00 +10°C° 0 mm 2 mps 747 mmHg 88%
    09:00 +12°C° 0 mm 2 mps 748 mmHg 85%
    10:00 +12°C° 0 mm 2 mps 748 mmHg 82%
    11:00 +13°C° 0 mm 2 mps 749 mmHg 79%
    12:00 +13°C° 0 mm 2 mps 749 mmHg 77%
    13:00 +13°C° 0 mm 2 mps 750 mmHg 76%
    14:00 +13°C° 0 mm 2 mps 750 mmHg 75%
    15:00 +12°C° 0 mm 2 mps 750 mmHg 79%
    16:00 +10°C° 0 mm 2 mps 750 mmHg 83%
    17:00 +9°C° 0 mm 2 mps 750 mmHg 86%
    18:00 +8°C° 0 mm 2 mps 750 mmHg 87%
    19:00 +8°C° 0 mm 2 mps 750 mmHg 88%
    20:00 +7°C° 0 mm 2 mps 751 mmHg 89%
    21:00 +7°C° 0 mm 2 mps 751 mmHg 89%
    22:00 +7°C° 0 mm 3 mps 751 mmHg 90%
    23:00 +7°C° 0 mm 3 mps 751 mmHg 91%

    Day after tomorrow, 16 October, Wednesday

    Time Temperature Precipitation Wind Pressure Humidity
    00:00 +7°C° 0 mm 3 mps 751 mmHg 91%
    01:00 +7°C° 0 mm 3 mps 751 mmHg 91%
    02:00 +5°C° 0 mm 3 mps 751 mmHg 92%
    03:00 +5°C° 0 mm 3 mps 750 mmHg 92%
    04:00 +7°C° 0 mm 3 mps 750 mmHg 93%
    05:00 +7°C° 0 mm 3 mps 750 mmHg 93%
    06:00 +7°C° 0 mm 3 mps 749 mmHg 92%
    07:00 +7°C° 0 mm 4 mps 749 mmHg 90%
    08:00 +7°C° 0 mm 4 mps 749 mmHg 89%
    09:00 +8°C° 0 mm 4 mps 748 mmHg 85%
    10:00 +11°C° 0 mm 4 mps 748 mmHg 82%
    11:00 +12°C° 0 mm 4 mps 747 mmHg 78%
    12:00 +13°C° 0 mm 5 mps 747 mmHg 77%
    13:00 +14°C° 0 mm 5 mps 746 mmHg 75%
    14:00 +15°C° 0 mm 5 mps 746 mmHg 74%
    15:00 +14°C° 0 mm 5 mps 745 mmHg 77%
    16:00 +13°C° 0 mm 4 mps 745 mmHg 81%
    17:00 +13°C° 0 mm 4 mps 744 mmHg 84%
    18:00 +13°C° 0 mm 4 mps 744 mmHg 83%
    19:00 +13°C° 0 mm 4 mps 744 mmHg 82%
    20:00 +13°C° 0 mm 4 mps 744 mmHg 80%
    21:00 +12°C° 0 mm 4 mps 744 mmHg 79%
    22:00 +12°C° 0 mm 4 mps 743 mmHg 77%
    23:00 +11°C° 0 mm 4 mps 743 mmHg 76%

    17 October, Thursday

    Time Temperature Precipitation Wind Pressure Humidity
    00:00 +12°C° 0 mm 4 mps 743 mmHg 78%
    01:00 +12°C° 0 mm 4 mps 743 mmHg 80%
    02:00 +12°C° 0 mm 4 mps 743 mmHg 82%
    03:00 +12°C° 0 mm 4 mps 743 mmHg 85%
    04:00 +12°C° 0 mm 4 mps 743 mmHg 89%
    05:00 +13°C° 0 mm 4 mps 743 mmHg 92%
    06:00 +13°C° 0 mm 4 mps 743 mmHg 91%
    07:00 +13°C° 0 mm 4 mps 743 mmHg 90%
    08:00 +13°C° 0 mm 4 mps 743 mmHg 89%
    09:00 +13°C° 0 mm 4 mps 744 mmHg 84%
    10:00 +14°C° 0 mm 4 mps 744 mmHg 80%
    11:00 +15°C° 0 mm 4 mps 744 mmHg 76%
    12:00 +15°C° 0.1 mm 4 mps 744 mmHg 74%
    13:00 +15°C° 0.1 mm 4 mps 744 mmHg 73%
    14:00 +15°C° 0.1 mm 4 mps 744 mmHg 71%
    15:00 +14°C° 0 mm 3 mps 744 mmHg 75%
    16:00 +12°C° 0 mm 3 mps 744 mmHg 79%
    17:00 +12°C° 0 mm 2 mps 744 mmHg 83%
    18:00 +12°C° 0.1 mm 2 mps 745 mmHg 84%
    19:00 +12°C° 0.1 mm 1 mps 745 mmHg 85%
    20:00 +12°C° 0.1 mm 1 mps 745 mmHg 86%
    21:00 +12°C° 0.2 mm 1 mps 745 mmHg 89%
    22:00 +11°C° 0.2 mm 1 mps 745 mmHg 91%
    23:00 +11°C° 0.2 mm 1 mps 746 mmHg 93%

    18 October, Friday

    Time Temperature Precipitation Wind Pressure Humidity
    00:00 +11°C° 0.1 mm 1 mps 746 mmHg 94%
    01:00 +11°C° 0.1 mm 1 mps 746 mmHg 95%
    02:00 +10°C° 0.1 mm 1 mps 747 mmHg 96%
    03:00 +10°C° 0 mm 1 mps 747 mmHg 96%
    04:00 +9°C° 0 mm 0 mps 747 mmHg 96%
    05:00 +9°C° 0 mm 0 mps 748 mmHg 96%
    06:00 +10°C° 0 mm 1 mps 748 mmHg 95%
    07:00 +10°C° 0 mm 1 mps 749 mmHg 94%
    08:00 +11°C° 0 mm 1 mps 749 mmHg 93%
    09:00 +10°C° 0 mm 2 mps 749 mmHg 91%
    10:00 +10°C° 0 mm 2 mps 750 mmHg 88%
    11:00 +10°C° 0 mm 2 mps 750 mmHg 86%
    12:00 +10°C° 0.1 mm 2 mps 750 mmHg 86%
    13:00 +10°C° 0.1 mm 3 mps 750 mmHg 85%
    14:00 +11°C° 0.1 mm 3 mps 750 mmHg 85%
    15:00 +10°C° 0.1 mm 3 mps 750 mmHg 86%
    16:00 +10°C° 0.1 mm 2 mps 750 mmHg 88%
    17:00 +9°C° 0.1 mm 2 mps 750 mmHg 89%
    18:00 +9°C° 0.1 mm 2 mps 750 mmHg 91%
    19:00 +9°C° 0.1 mm 2 mps 751 mmHg 92%
    20:00 +9°C° 0.1 mm 2 mps 751 mmHg 93%
    21:00 +9°C° 0 mm 2 mps 751 mmHg 94%
    22:00 +10°C° 0 mm 1 mps 750 mmHg 95%
    23:00 +10°C° 0 mm 1 mps 750 mmHg 95%

    19 October, Saturday

    Time Temperature Precipitation Wind Pressure Humidity
    00:00 +10°C° 0 mm 1 mps 750 mmHg 96%
    01:00 +9°C° 0 mm 1 mps 750 mmHg 96%
    02:00 +9°C° 0 mm 1 mps 750 mmHg 96%
    03:00 +9°C° 0 mm 1 mps 750 mmHg 95%
    04:00 +9°C° 0 mm 1 mps 750 mmHg 95%
    05:00 +9°C° 0 mm 1 mps 750 mmHg 94%
    06:00 +10°C° 0 mm 1 mps 750 mmHg 94%
    07:00 +10°C° 0 mm 1 mps 750 mmHg 94%
    08:00 +9°C° 0 mm 2 mps 750 mmHg 94%
    09:00 +10°C° 0 mm 2 mps 750 mmHg 93%
    10:00 +12°C° 0 mm 1 mps 751 mmHg 91%
    11:00 +12°C° 0 mm 1 mps 751 mmHg 90%
    12:00 +12°C° 0.1 mm 1 mps 751 mmHg 89%
    13:00 +13°C° 0.1 mm 2 mps 750 mmHg 89%
    14:00 +13°C° 0.1 mm 2 mps 750 mmHg 89%
    15:00 +12°C° 0 mm 2 mps 750 mmHg 90%
    16:00 +12°C° 0 mm 2 mps 750 mmHg 92%
    17:00 +10°C° 0 mm 2 mps 750 mmHg 94%
    18:00 +10°C° 0 mm 2 mps 750 mmHg 94%
    19:00 +10°C° 0 mm 2 mps 750 mmHg 94%
    20:00 +10°C° 0 mm 2 mps 750 mmHg 94%
    21:00 +10°C° 0 mm 2 mps 750 mmHg 94%
    22:00 +10°C° 0 mm 2 mps 750 mmHg 94%
    23:00 +9°C° 0 mm 2 mps 750 mmHg 94%
    Show more